Location: Claflin County Park
(44.8478°N, 87.5507°W)
Time: 00:53:52
(UTC+00:00)

COSMOS 2455 - Pass Details

Date: 10 December 2025
Orbit: 898 x 910 km, 67.1° (Epoch: 19 January)

Event Time Altitude Azimuth Distance (km) Brightness Sun altitude
Exits shadow 10:59:44 49° 255° (WSW) 1,163 3.0 -23.4°
Maximum altitude 10:59:59 49° 246° (WSW) 1,158 3.0 -23.4°
Drops below altitude 10° 11:05:44 10° 173° (S) 2,582 5.4 -22.4°
Sets 11:08:17 0° 168° (SSE) 3,518 6.2 -21.9°
